Terminal Aerodrome Forecast
Issued by NWS Cleveland, OH

Home | Current Version | Previous Version | Graphics & Text | Print | Product List | Glossary On
Versions: 1 2 3 4 5 6 7 8 9 10 11 12 13 14 15
000
FTUS41 KCLE 152000 AAA
TAFYNG
TAF AMD
KYNG 152043Z 1521/1618 30012G20KT 5SM -SN BR BKN015 OVC025
      TEMPO 1521/1524 2SM -SN BR OVC015
     FM160000 32011KT P6SM OVC025
     FM160600 32009KT P6SM SCT025
     FM161300 19003KT P6SM SKC=

USA.gov is the U.S. government's official web portal to all federal, state and local government web resources and services.